TimeEDT,TemperatureF,Dew PointF,Humidity,Sea Level PressureIn,VisibilityMPH,Wind Direction,Wind SpeedMPH,Gust SpeedMPH,PrecipitationIn,Events,Conditions,WindDirDegrees,DateUTC
12:51 AM,75.0,57.0,53,30.25,10.0,NE,9.2,21.9,N/A,,Clear,50,2013-08-25 04:51:00
1:51 AM,73.9,57.0,55,30.25,10.0,ENE,10.4,19.6,N/A,,Clear,60,2013-08-25 05:51:00
2:51 AM,73.9,57.0,55,30.25,10.0,NE,10.4,18.4,N/A,,Clear,50,2013-08-25 06:51:00
3:51 AM,73.0,57.0,57,30.24,10.0,ENE,11.5,17.3,N/A,,Clear,60,2013-08-25 07:51:00
4:51 AM,73.0,57.9,59,30.25,10.0,ENE,9.2,-,N/A,,Clear,60,2013-08-25 08:51:00
5:51 AM,72.0,57.9,61,30.25,10.0,NE,5.8,-,N/A,,Clear,50,2013-08-25 09:51:00
6:51 AM,72.0,60.1,66,30.27,10.0,NE,9.2,18.4,N/A,,Clear,50,2013-08-25 10:51:00
7:51 AM,75.0,62.1,64,30.28,10.0,NE,10.4,18.4,N/A,,Clear,40,2013-08-25 11:51:00
8:51 AM,77.0,63.0,62,30.30,10.0,NE,9.2,19.6,N/A,,Clear,40,2013-08-25 12:51:00
9:51 AM,79.0,61.0,54,30.31,10.0,NNE,12.7,24.2,N/A,,Clear,30,2013-08-25 13:51:00
10:51 AM,80.1,64.0,58,30.32,10.0,NNE,12.7,24.2,N/A,,Clear,20,2013-08-25 14:51:00
11:51 AM,81.0,62.1,52,30.32,10.0,NE,11.5,21.9,N/A,,Clear,40,2013-08-25 15:51:00
12:51 PM,82.0,64.0,54,30.31,10.0,NE,11.5,25.3,N/A,,Clear,50,2013-08-25 16:51:00
1:51 PM,81.0,64.0,56,30.30,10.0,NE,12.7,25.3,N/A,,Clear,50,2013-08-25 17:51:00
2:51 PM,80.1,63.0,56,30.29,10.0,NE,12.7,26.5,N/A,,Clear,50,2013-08-25 18:51:00
3:51 PM,80.1,62.1,54,30.27,10.0,ENE,9.2,21.9,N/A,,Clear,60,2013-08-25 19:51:00
4:51 PM,78.1,62.1,58,30.27,10.0,NE,9.2,24.2,N/A,,Clear,50,2013-08-25 20:51:00
5:51 PM,75.9,61.0,60,30.28,10.0,NE,10.4,18.4,N/A,,Clear,50,2013-08-25 21:51:00
6:51 PM,75.9,61.0,60,30.27,10.0,NE,10.4,18.4,N/A,,Clear,40,2013-08-25 22:51:00
7:51 PM,73.9,61.0,64,30.27,10.0,NE,10.4,17.3,N/A,,Clear,50,2013-08-25 23:51:00
8:51 PM,73.0,62.1,68,30.28,10.0,NE,8.1,-,N/A,,Clear,50,2013-08-26 00:51:00
9:51 PM,73.0,62.1,68,30.28,10.0,ENE,5.8,-,N/A,,Clear,60,2013-08-26 01:51:00
10:51 PM,73.0,62.1,68,30.28,10.0,NE,6.9,-,N/A,,Clear,50,2013-08-26 02:51:00
11:51 PM,73.0,61.0,66,30.27,10.0,NE,5.8,-,N/A,,Clear,50,2013-08-26 03:51:00